• In Moldova, Republic
  • List of Countries
  • For 7 days
  • Water Temperature
  • Satellite Maps
  • Weather Map
  • Weather Widgets
  • user-avatar
    Login

    Hourly Weather Ondjiwa

    Today, 13 December, Wednesday

    Time Temperature Precipitation Wind Pressure Humidity
    00:00 +30°C° 0 mm 3 mps 666 mmHg 33%
    01:00 +29°C° 0 mm 3 mps 666 mmHg 34%
    02:00 +28°C° 0 mm 3 mps 666 mmHg 33%
    03:00 +28°C° 0 mm 3 mps 666 mmHg 32%
    04:00 +27°C° 0 mm 3 mps 666 mmHg 31%
    05:00 +27°C° 0 mm 3 mps 666 mmHg 31%
    06:00 +27°C° 0 mm 3 mps 667 mmHg 30%
    07:00 +28°C° 0 mm 3 mps 667 mmHg 29%
    08:00 +29°C° 0 mm 3 mps 667 mmHg 28%
    09:00 +30°C° 0 mm 3 mps 668 mmHg 26%
    10:00 +31°C° 0 mm 3 mps 668 mmHg 25%
    11:00 +33°C° 0 mm 3 mps 668 mmHg 23%
    12:00 +34°C° 0 mm 3 mps 667 mmHg 22%
    13:00 +36°C° 0 mm 3 mps 667 mmHg 20%
    14:00 +36°C° 0 mm 3 mps 667 mmHg 19%
    15:00 +36°C° 0 mm 4 mps 666 mmHg 18%
    16:00 +36°C° 0 mm 4 mps 666 mmHg 17%
    17:00 +35°C° 0 mm 3 mps 666 mmHg 18%
    18:00 +33°C° 0 mm 3 mps 666 mmHg 18%
    19:00 +31°C° 0 mm 2 mps 666 mmHg 19%
    20:00 +30°C° 0 mm 2 mps 666 mmHg 21%
    21:00 +29°C° 0 mm 3 mps 667 mmHg 23%
    22:00 +28°C° 0 mm 3 mps 667 mmHg 26%
    23:00 +27°C° 0 mm 3 mps 667 mmHg 29%

    Tomorrow, 14 December, Thursday

    Time Temperature Precipitation Wind Pressure Humidity
    00:00 +27°C° 0 mm 3 mps 667 mmHg 32%
    01:00 +26°C° 0 mm 3 mps 666 mmHg 35%
    02:00 +25°C° 0 mm 3 mps 666 mmHg 34%
    03:00 +25°C° 0 mm 3 mps 666 mmHg 33%
    04:00 +25°C° 0 mm 2 mps 666 mmHg 32%
    05:00 +25°C° 0 mm 3 mps 667 mmHg 31%
    06:00 +26°C° 0 mm 3 mps 667 mmHg 29%
    07:00 +27°C° 0 mm 4 mps 668 mmHg 27%
    08:00 +29°C° 0 mm 4 mps 668 mmHg 22%
    09:00 +32°C° 0 mm 4 mps 669 mmHg 17%
    10:00 +35°C° 0 mm 4 mps 669 mmHg 12%
    11:00 +36°C° 0 mm 4 mps 668 mmHg 11%
    12:00 +37°C° 0 mm 4 mps 668 mmHg 11%
    13:00 +38°C° 0 mm 4 mps 667 mmHg 10%
    14:00 +38°C° 0 mm 4 mps 667 mmHg 10%
    15:00 +38°C° 0 mm 3 mps 666 mmHg 10%
    16:00 +37°C° 0 mm 3 mps 665 mmHg 10%
    17:00 +36°C° 0 mm 3 mps 665 mmHg 12%
    18:00 +34°C° 0 mm 2 mps 665 mmHg 13%
    19:00 +31°C° 0 mm 1 mps 665 mmHg 15%
    20:00 +31°C° 0 mm 2 mps 666 mmHg 16%
    21:00 +30°C° 0 mm 2 mps 666 mmHg 16%
    22:00 +29°C° 0 mm 3 mps 667 mmHg 17%
    23:00 +28°C° 0 mm 3 mps 666 mmHg 18%

    Day after tomorrow, 15 December, Friday

    Time Temperature Precipitation Wind Pressure Humidity
    00:00 +28°C° 0 mm 4 mps 666 mmHg 18%
    01:00 +27°C° 0 mm 4 mps 666 mmHg 18%
    02:00 +26°C° 0 mm 4 mps 665 mmHg 19%
    03:00 +25°C° 0 mm 3 mps 665 mmHg 19%
    04:00 +24°C° 0 mm 3 mps 665 mmHg 20%
    05:00 +25°C° 0 mm 2 mps 666 mmHg 19%
    06:00 +26°C° 0 mm 2 mps 667 mmHg 18%
    07:00 +26°C° 0 mm 1 mps 667 mmHg 18%
    08:00 +29°C° 0 mm 2 mps 668 mmHg 15%
    09:00 +31°C° 0 mm 2 mps 668 mmHg 12%
    10:00 +35°C° 0 mm 2 mps 669 mmHg 9%
    11:00 +36°C° 0 mm 3 mps 668 mmHg 9%
    12:00 +38°C° 0 mm 3 mps 668 mmHg 8%
    13:00 +39°C° 0 mm 3 mps 667 mmHg 7%
    14:00 +39°C° 0 mm 3 mps 666 mmHg 7%
    15:00 +39°C° 0 mm 3 mps 666 mmHg 7%
    16:00 +39°C° 0 mm 3 mps 665 mmHg 7%
    17:00 +37°C° 0 mm 3 mps 665 mmHg 9%
    18:00 +35°C° 0 mm 3 mps 665 mmHg 10%
    19:00 +33°C° 0 mm 3 mps 665 mmHg 11%
    20:00 +31°C° 0 mm 3 mps 665 mmHg 11%
    21:00 +31°C° 0 mm 3 mps 665 mmHg 12%
    22:00 +30°C° 0 mm 3 mps 666 mmHg 12%
    23:00 +29°C° 0 mm 3 mps 665 mmHg 13%

    16 December, Saturday

    Time Temperature Precipitation Wind Pressure Humidity
    00:00 +28°C° 0 mm 3 mps 665 mmHg 14%
    01:00 +27°C° 0 mm 3 mps 665 mmHg 15%
    02:00 +26°C° 0 mm 2 mps 665 mmHg 17%
    03:00 +25°C° 0 mm 2 mps 665 mmHg 19%
    04:00 +24°C° 0 mm 1 mps 665 mmHg 21%
    05:00 +25°C° 0 mm 2 mps 665 mmHg 21%
    06:00 +26°C° 0 mm 2 mps 666 mmHg 20%
    07:00 +27°C° 0 mm 2 mps 667 mmHg 20%
    08:00 +29°C° 0 mm 3 mps 667 mmHg 17%
    09:00 +31°C° 0 mm 3 mps 667 mmHg 14%
    10:00 +34°C° 0 mm 3 mps 668 mmHg 12%
    11:00 +36°C° 0 mm 3 mps 667 mmHg 12%
    12:00 +38°C° 0 mm 2 mps 667 mmHg 12%
    13:00 +39°C° 0 mm 2 mps 667 mmHg 13%
    14:00 +39°C° 0 mm 2 mps 666 mmHg 15%
    15:00 +38°C° 0 mm 2 mps 665 mmHg 17%
    16:00 +38°C° 0 mm 2 mps 665 mmHg 19%
    17:00 +36°C° 0 mm 2 mps 665 mmHg 22%
    18:00 +35°C° 0 mm 2 mps 665 mmHg 26%
    19:00 +32°C° 0 mm 2 mps 664 mmHg 29%
    20:00 +31°C° 0.1 mm 2 mps 665 mmHg 33%
    21:00 +30°C° 0.1 mm 2 mps 665 mmHg 38%
    22:00 +29°C° 0.1 mm 3 mps 665 mmHg 42%
    23:00 +28°C° 0.2 mm 2 mps 665 mmHg 45%

    17 December, Sunday

    Time Temperature Precipitation Wind Pressure Humidity
    00:00 +28°C° 0.2 mm 2 mps 665 mmHg 48%
    01:00 +27°C° 0.2 mm 2 mps 665 mmHg 50%
    02:00 +26°C° 0.8 mm 2 mps 665 mmHg 53%
    03:00 +26°C° 0.8 mm 1 mps 665 mmHg 56%
    04:00 +25°C° 0.8 mm 1 mps 665 mmHg 58%
    05:00 +25°C° 0.2 mm 1 mps 666 mmHg 57%
    06:00 +26°C° 0.2 mm 2 mps 666 mmHg 56%
    07:00 +26°C° 0.2 mm 2 mps 667 mmHg 55%
    08:00 +28°C° 0 mm 2 mps 667 mmHg 49%
    09:00 +30°C° 0 mm 2 mps 667 mmHg 43%
    10:00 +34°C° 0 mm 2 mps 667 mmHg 37%
    11:00 +35°C° 0 mm 3 mps 667 mmHg 33%
    12:00 +36°C° 0 mm 3 mps 666 mmHg 29%
    13:00 +38°C° 0 mm 3 mps 666 mmHg 26%
    14:00 +37°C° 0 mm 3 mps 665 mmHg 27%
    15:00 +37°C° 0 mm 3 mps 665 mmHg 27%
    16:00 +36°C° 0 mm 3 mps 665 mmHg 28%
    17:00 +35°C° 0.4 mm 3 mps 665 mmHg 34%
    18:00 +33°C° 0.4 mm 4 mps 665 mmHg 41%
    19:00 +30°C° 0.4 mm 5 mps 665 mmHg 47%
    20:00 +28°C° 0.8 mm 5 mps 665 mmHg 53%
    21:00 +27°C° 0.8 mm 5 mps 666 mmHg 59%
    22:00 +25°C° 0.8 mm 5 mps 666 mmHg 65%
    23:00 +25°C° 0.7 mm 4 mps 666 mmHg 67%

    18 December, Monday

    Time Temperature Precipitation Wind Pressure Humidity
    00:00 +24°C° 0.7 mm 3 mps 665 mmHg 69%
    01:00 +24°C° 0.7 mm 3 mps 665 mmHg 71%
    02:00 +24°C° 0 mm 2 mps 665 mmHg 69%
    03:00 +23°C° 0 mm 2 mps 665 mmHg 68%
    04:00 +23°C° 0 mm 1 mps 665 mmHg 66%
    05:00 +23°C° 0 mm 2 mps 666 mmHg 63%
    06:00 +24°C° 0 mm 2 mps 666 mmHg 60%
    07:00 +24°C° 0 mm 2 mps 667 mmHg 57%
    08:00 +25°C° 0 mm 2 mps 667 mmHg 51%
    09:00 +27°C° 0 mm 2 mps 667 mmHg 46%
    10:00 +29°C° 0 mm 2 mps 668 mmHg 40%
    11:00 +30°C° 0 mm 2 mps 667 mmHg 39%
    12:00 +31°C° 0 mm 3 mps 667 mmHg 37%
    13:00 +33°C° 0 mm 3 mps 667 mmHg 36%
    14:00 +33°C° 0 mm 3 mps 666 mmHg 38%
    15:00 +31°C° 0 mm 3 mps 666 mmHg 40%
    16:00 +30°C° 0 mm 4 mps 665 mmHg 43%
    17:00 +29°C° 0 mm 3 mps 665 mmHg 46%
    18:00 +28°C° 0 mm 3 mps 665 mmHg 50%
    19:00 +27°C° 0 mm 3 mps 665 mmHg 54%
    20:00 +27°C° 0 mm 3 mps 665 mmHg 54%
    21:00 +26°C° 0 mm 2 mps 666 mmHg 55%
    22:00 +26°C° 0 mm 2 mps 666 mmHg 56%
    23:00 +25°C° 0.2 mm 2 mps 666 mmHg 58%
    Show more